Volver al catálogo

COSMOS 1823 DEB

ActivoLEO
NORAD 19440·DEBRIS·🇷🇺 Russia

Lanzado Feb 20, 1987 desde Plesetsk Cosmodrome

Loading…

Próximos Pases (próximas 24 horas)

TLE

ActualizadoSource: Space-Track

Época: Sep 14, 2026, 02:54 UTC

1 19440U 87020CA  26257.12103925  .00000052  00000-0  30568-3 0  9992
2 19440  73.7509 295.1005 0161781 113.1360 278.7982 12.75938830789870

Sigue COSMOS 1823 DEB en tiempo real con AllMySat

Download on the App Store